パンスターズ彗星

C/2024 G4 ( PanSTARRS )

English version
Home page
Updated on August 11, 2025

---------------------------------------------------------------------

・ プロフィール

発見日 2024年4月10日
発見光度 21.1等
発見者 Pan-STARRS 2 telescope (Haleakala)

・ 写真集

・ 軌道要素

Epoch 2025 May 5.0 TT = JDT 2460800.5
T 2026 Mar. 21.63778 TT                                 Pike
q   4.9003405            (2000.0)            P               Q
z  +0.0003185      Peri.  131.42205     +0.30382438     +0.91999891
 +/-0.0000014      Node   152.98372     -0.95216907     +0.28431467
e   0.9984395      Incl.   33.02631     +0.03263146     -0.26975392
From 504 observations 2021 Jan. 12-2025 Aug. 5, mean residual 0".5.

・ 光度変化

        m1 = 7.0 + 5 logΔ + 10.0 log r

---------------------------------------------------------------------

軌道要素はM.P.E.C. 2025-P113に掲載されたものです。
光度グラフはComet for Windowsで作成したものです。

---------------------------------------------------------------------

Copyright(C) Seiichi Yoshida (comet@aerith.net). All rights reserved.